Location: Berlin
(42.3812°N, 71.6370°W)
Time: 05:11:49
(UTC+00:00)

Cosmos 2123 Rocket - Pass Details

Date: 15 November 2025
Orbit: 960 x 991 km, 82.9° (Epoch: 09 December)

Event Time Altitude Azimuth Distance (km) Brightness Sun altitude
Exits shadow 08:38:58 56° 36° (NE) 1,143 4.4 -33.0°
Drops below altitude 10° 08:43:52 10° 12° (NNE) 2,706 6.5 -32.1°
Sets 08:46:23 0° 10° (N) 3,655 7.2 -31.6°
